Ameland Airport


Codes: EHAL/
Name: Ameland Airport
City: Ameland
Country: Netherlands
Elevation: 11 ft.
Website:
Wikipedia:

Photos at Ameland Airport


   Photos courtesy of SpottingLog. You can add your own sightings and photos by signing up for a free trial today.



No photos found.

Weather at Ameland Airport


Time (UTC)DescriptionTempratureWindCloud coverageVisibilityPressureHumidity
15-Apr-2024 15:00Moderate Rain7°C29 mph, W75%10000m994hPa81%
15-Apr-2024 18:00Light Rain7°C29 mph, W77%10000m994hPa76%
15-Apr-2024 21:00Light Rain7°C29 mph, W46%10000m995hPa75%
16-Apr-2024 00:00Light Rain6°C20 mph, W44%10000m995hPa88%
16-Apr-2024 03:00Light Rain8°C22 mph, W78%10000m994hPa72%
16-Apr-2024 06:00Light Rain7°C11 mph, NW89%10000m995hPa78%
16-Apr-2024 09:00Light Rain9°C31 mph, N99%10000m999hPa84%
16-Apr-2024 12:00Light Rain9°C25 mph, N98%10000m1003hPa70%
16-Apr-2024 15:00Light Rain9°C20 mph, N99%6960m1006hPa77%
16-Apr-2024 18:00Light Rain8°C22 mph, N87%10000m1008hPa73%
16-Apr-2024 21:00Scattered Clouds8°C18 mph, N35%10000m1010hPa68%
17-Apr-2024 00:00Broken Clouds8°C13 mph, N66%10000m1011hPa68%
17-Apr-2024 03:00Light Rain7°C16 mph, NW100%10000m1011hPa79%
17-Apr-2024 06:00Light Rain6°C16 mph, N100%10000m1012hPa83%
17-Apr-2024 09:00Light Rain7°C13 mph, N100%10000m1012hPa72%
17-Apr-2024 12:00Light Rain8°C13 mph, N100%10000m1013hPa71%
17-Apr-2024 15:00Light Rain8°C16 mph, N100%10000m1014hPa71%
17-Apr-2024 18:00Overcast Clouds7°C13 mph, N94%10000m1015hPa72%
17-Apr-2024 21:00Overcast Clouds8°C11 mph, N100%10000m1016hPa68%
18-Apr-2024 00:00Light Rain8°C13 mph, N65%10000m1017hPa77%
18-Apr-2024 03:00Light Rain8°C18 mph, N57%10000m1018hPa76%
18-Apr-2024 06:00Broken Clouds7°C16 mph, N52%10000m1019hPa73%
18-Apr-2024 09:00Scattered Clouds7°C16 mph, NW45%10000m1020hPa65%
18-Apr-2024 12:00Scattered Clouds8°C16 mph, NW31%10000m1021hPa64%
18-Apr-2024 15:00Broken Clouds8°C18 mph, NW58%10000m1021hPa66%
18-Apr-2024 18:00Broken Clouds8°C16 mph, NW61%10000m1021hPa67%
18-Apr-2024 21:00Overcast Clouds8°C18 mph, W100%10000m1020hPa69%
19-Apr-2024 00:00Overcast Clouds8°C20 mph, W100%10000m1017hPa70%
19-Apr-2024 03:00Light Rain9°C25 mph, W100%10000m1013hPa84%
19-Apr-2024 06:00Moderate Rain9°C29 mph, NW100%10000m1010hPa91%
19-Apr-2024 09:00Light Rain9°C29 mph, NW97%10000m1011hPa77%
19-Apr-2024 12:00Light Rain8°C31 mph, NW87%10000m1012hPa80%
19-Apr-2024 15:00Broken Clouds8°C34 mph, NW72%10000m1014hPa69%
19-Apr-2024 18:00Broken Clouds7°C36 mph, NW84%10000m1015hPa65%
19-Apr-2024 21:00Scattered Clouds7°C31 mph, NW49%10000m1017hPa65%
20-Apr-2024 00:00Broken Clouds7°C29 mph, NW61%10000m1018hPa63%
20-Apr-2024 03:00Overcast Clouds7°C25 mph, NW95%10000m1020hPa65%
20-Apr-2024 06:00Overcast Clouds8°C22 mph, NW98%10000m1021hPa64%
20-Apr-2024 09:00Overcast Clouds8°C18 mph, NW100%10000m1022hPa71%
20-Apr-2024 12:00Overcast Clouds9°C22 mph, W100%10000m1022hPa79%